Time,TemperatureF,DewpointF,PressureIn,WindDirection,WindDirectionDegrees,WindSpeedMPH,WindSpeedGustMPH,Humidity,HourlyPrecipIn,Conditions,Clouds,dailyrainin,SoftwareType,DateUTC
2013-05-21 00:02:00,83.1,69.6,29.66,SSW,203,2.4,2.4,64,0.00,,,0.00,WUHU216HW,2013-05-21 05:02:00,
2013-05-21 00:07:00,83.1,69.6,29.65,South,180,0.8,6.4,64,0.00,,,0.00,WUHU216HW,2013-05-21 05:07:00,
2013-05-21 00:12:00,82.9,69.4,29.64,ESE,113,0.0,6.4,64,0.00,,,0.00,WUHU216HW,2013-05-21 05:12:00,
2013-05-21 00:17:00,82.9,69.4,29.64,SSW,203,3.5,3.5,64,0.00,,,0.00,WUHU216HW,2013-05-21 05:17:00,
2013-05-21 00:22:00,82.7,69.2,29.65,SE,135,0.0,3.5,64,0.00,,,0.00,WUHU216HW,2013-05-21 05:22:00,
2013-05-21 00:27:00,82.7,68.8,29.64,South,180,1.5,1.5,63,0.00,,,0.00,WUHU216HW,2013-05-21 05:27:00,
2013-05-21 00:32:00,82.7,68.8,29.64,SSE,158,0.6,1.5,63,0.00,,,0.00,WUHU216HW,2013-05-21 05:32:00,
2013-05-21 00:37:00,82.5,68.6,29.64,SSE,158,6.0,6.0,63,0.00,,,0.00,WUHU216HW,2013-05-21 05:37:00,
2013-05-21 00:42:00,82.7,68.3,29.65,SSE,158,0.0,6.0,62,0.00,,,0.00,WUHU216HW,2013-05-21 05:42:00,
2013-05-21 00:47:00,82.5,68.1,29.66,South,180,0.0,6.0,62,0.00,,,0.00,WUHU216HW,2013-05-21 05:47:00,
2013-05-21 00:52:00,82.5,68.1,29.66,South,180,0.0,0.0,62,0.00,,,0.00,WUHU216HW,2013-05-21 05:52:00,
2013-05-21 00:57:00,82.2,68.2,29.67,SSE,158,0.0,0.0,63,0.00,,,0.00,WUHU216HW,2013-05-21 05:57:00,
2013-05-21 01:02:00,82.2,68.2,29.67,SSE,158,0.0,0.0,63,0.00,,,0.00,WUHU216HW,2013-05-21 06:02:00,
2013-05-21 01:07:00,81.8,69.3,29.66,SW,225,0.0,5.1,66,0.00,,,0.00,WUHU216HW,2013-05-21 06:07:00,
2013-05-21 01:12:00,81.5,69.8,29.66,WSW,248,0.0,5.1,68,0.00,,,0.00,WUHU216HW,2013-05-21 06:12:00,
2013-05-21 01:17:00,81.3,69.7,29.67,SSE,158,0.0,2.9,68,0.00,,,0.00,WUHU216HW,2013-05-21 06:17:00,
2013-05-21 01:22:00,81.3,69.7,29.68,South,180,0.0,0.0,68,0.00,,,0.00,WUHU216HW,2013-05-21 06:22:00,
2013-05-21 01:27:00,81.1,69.5,29.69,West,270,0.0,4.0,69,0.00,,,0.00,WUHU216HW,2013-05-21 06:27:00,
2013-05-21 01:32:00,80.9,69.8,29.70,South,180,3.1,4.0,69,0.00,,,0.00,WUHU216HW,2013-05-21 06:32:00,
2013-05-21 01:37:00,80.9,69.8,29.69,SSE,158,0.0,3.1,69,0.00,,,0.00,WUHU216HW,2013-05-21 06:37:00,
2013-05-21 01:42:00,80.9,69.8,29.69,South,180,0.0,3.1,69,0.00,,,0.00,WUHU216HW,2013-05-21 06:42:00,
2013-05-21 01:47:00,80.7,70.1,29.70,SSE,158,0.0,0.0,70,0.00,,,0.00,WUHU216HW,2013-05-21 06:47:00,
2013-05-21 01:52:00,80.7,70.1,29.69,South,180,0.0,0.0,70,0.00,,,0.00,WUHU216HW,2013-05-21 06:52:00,
2013-05-21 01:58:00,80.7,70.1,29.70,SSE,158,0.0,0.0,70,0.00,,,0.00,WUHU216HW,2013-05-21 06:58:00,
2013-05-21 02:03:00,80.6,69.5,29.69,SE,135,0.0,0.0,69,0.00,,,0.00,WUHU216HW,2013-05-21 07:03:00,
2013-05-21 02:08:00,80.4,69.8,29.69,South,180,0.0,0.0,70,0.00,,,0.00,WUHU216HW,2013-05-21 07:08:00,
2013-05-21 02:13:00,80.2,69.1,29.69,SSE,158,0.0,2.0,69,0.00,,,0.00,WUHU216HW,2013-05-21 07:13:00,
2013-05-21 02:18:00,80.2,69.1,29.69,SSE,158,0.0,2.0,69,0.00,,,0.00,WUHU216HW,2013-05-21 07:18:00,
2013-05-21 02:23:00,80.2,69.1,29.69,South,180,0.0,0.0,69,0.00,,,0.00,WUHU216HW,2013-05-21 07:23:00,
2013-05-21 02:28:00,79.8,68.8,29.69,SSE,158,0.0,0.8,69,0.00,,,0.00,WUHU216HW,2013-05-21 07:28:00,
2013-05-21 02:33:00,79.8,68.8,29.69,SSE,158,3.5,3.5,69,0.00,,,0.00,WUHU216HW,2013-05-21 07:33:00,
2013-05-21 02:38:00,79.7,69.0,29.69,SSW,203,0.0,3.5,70,0.00,,,0.00,WUHU216HW,2013-05-21 07:38:00,
2013-05-21 02:43:00,79.7,69.0,29.69,SSW,203,0.0,3.5,70,0.00,,,0.00,WUHU216HW,2013-05-21 07:43:00,
2013-05-21 02:48:00,79.5,68.9,29.69,South,180,3.1,3.1,70,0.00,,,0.00,WUHU216HW,2013-05-21 07:48:00,
2013-05-21 02:53:00,79.3,69.1,29.69,SSE,158,0.0,3.1,71,0.00,,,0.00,WUHU216HW,2013-05-21 07:53:00,
2013-05-21 02:58:00,79.3,69.1,29.69,SSE,158,0.0,0.0,71,0.00,,,0.00,WUHU216HW,2013-05-21 07:58:00,
2013-05-21 03:03:00,79.1,68.9,29.69,SSE,158,0.0,0.0,71,0.00,,,0.00,WUHU216HW,2013-05-21 08:03:00,
2013-05-21 03:08:00,78.9,68.7,29.69,SSW,203,0.0,0.0,71,0.00,,,0.00,WUHU216HW,2013-05-21 08:08:00,
2013-05-21 03:13:00,78.8,68.9,29.70,South,180,5.1,5.1,72,0.00,,,0.00,WUHU216HW,2013-05-21 08:13:00,
2013-05-21 03:18:00,78.6,68.7,29.70,SE,135,0.0,5.1,72,0.00,,,0.00,WUHU216HW,2013-05-21 08:18:00,
2013-05-21 03:23:00,78.6,69.1,29.69,South,180,0.0,5.1,73,0.00,,,0.00,WUHU216HW,2013-05-21 08:23:00,
2013-05-21 03:28:00,78.6,69.1,29.69,South,180,5.8,5.8,73,0.00,,,0.00,WUHU216HW,2013-05-21 08:28:00,
2013-05-21 03:33:00,78.6,69.1,29.69,SSE,158,0.0,5.8,73,0.00,,,0.00,WUHU216HW,2013-05-21 08:33:00,
2013-05-21 03:38:00,78.6,69.1,29.70,South,180,2.6,2.6,73,0.00,,,0.00,WUHU216HW,2013-05-21 08:38:00,
2013-05-21 03:43:00,78.2,69.2,29.70,SSE,158,0.0,2.6,74,0.00,,,0.00,WUHU216HW,2013-05-21 08:43:00,
2013-05-21 03:48:00,78.4,69.4,29.70,South,180,0.0,2.6,74,0.00,,,0.00,WUHU216HW,2013-05-21 08:48:00,
2013-05-21 03:53:00,78.4,69.4,29.70,SE,135,0.0,0.0,74,0.00,,,0.00,WUHU216HW,2013-05-21 08:53:00,
2013-05-21 03:58:00,78.2,69.2,29.70,South,180,0.0,0.0,74,0.00,,,0.00,WUHU216HW,2013-05-21 08:58:00,
2013-05-21 04:06:00,78.2,69.2,29.70,South,180,0.0,0.0,74,0.00,,,0.00,WUHU216HW,2013-05-21 09:06:00,
2013-05-21 04:11:00,78.0,69.0,29.70,South,180,4.4,4.4,74,0.00,,,0.00,WUHU216HW,2013-05-21 09:11:00,
2013-05-21 04:16:00,78.0,69.0,29.71,South,180,0.0,4.4,74,0.00,,,0.00,WUHU216HW,2013-05-21 09:16:00,
2013-05-21 04:21:00,78.0,69.0,29.71,SSE,158,0.0,0.8,74,0.00,,,0.00,WUHU216HW,2013-05-21 09:21:00,
2013-05-21 04:26:00,77.9,69.2,29.71,SSE,158,4.0,6.2,75,0.00,,,0.00,WUHU216HW,2013-05-21 09:26:00,
2013-05-21 04:31:00,77.7,69.1,29.71,SSE,158,0.0,6.2,75,0.00,,,0.00,WUHU216HW,2013-05-21 09:31:00,
2013-05-21 04:36:00,77.7,69.1,29.71,South,180,0.0,5.8,75,0.00,,,0.00,WUHU216HW,2013-05-21 09:36:00,
2013-05-21 04:41:00,77.9,69.2,29.71,SSE,158,0.0,5.8,75,0.00,,,0.00,WUHU216HW,2013-05-21 09:41:00,
2013-05-21 04:46:00,77.7,69.1,29.71,South,180,0.0,5.5,75,0.00,,,0.00,WUHU216HW,2013-05-21 09:46:00,
2013-05-21 04:51:00,77.7,69.1,29.71,SSE,158,0.0,5.5,75,0.00,,,0.00,WUHU216HW,2013-05-21 09:51:00,
2013-05-21 04:56:00,77.7,69.1,29.71,SSE,158,0.0,0.0,75,0.00,,,0.00,WUHU216HW,2013-05-21 09:56:00,
2013-05-21 05:01:00,77.9,69.2,29.71,SSE,158,0.0,0.0,75,0.00,,,0.00,WUHU216HW,2013-05-21 10:01:00,
2013-05-21 05:06:00,78.0,69.4,29.71,South,180,0.0,0.0,75,0.00,,,0.00,WUHU216HW,2013-05-21 10:06:00,
2013-05-21 05:11:00,78.0,69.4,29.71,SSE,158,0.0,0.0,75,0.00,,,0.00,WUHU216HW,2013-05-21 10:11:00,
2013-05-21 05:16:00,78.0,69.4,29.71,SE,135,0.0,0.0,75,0.00,,,0.00,WUHU216HW,2013-05-21 10:16:00,
2013-05-21 05:21:00,78.0,69.4,29.71,SSE,158,0.0,0.0,75,0.00,,,0.00,WUHU216HW,2013-05-21 10:21:00,
2013-05-21 05:26:00,78.0,69.4,29.71,SE,135,0.0,0.0,75,0.00,,,0.00,WUHU216HW,2013-05-21 10:26:00,
2013-05-21 05:31:00,78.0,69.4,29.72,WSW,248,0.0,0.0,75,0.00,,,0.00,WUHU216HW,2013-05-21 10:31:00,
2013-05-21 05:36:00,78.0,69.4,29.72,SE,135,0.0,0.0,75,0.00,,,0.00,WUHU216HW,2013-05-21 10:36:00,
2013-05-21 05:41:00,78.0,69.4,29.72,SSE,158,2.6,2.6,75,0.00,,,0.00,WUHU216HW,2013-05-21 10:41:00,
2013-05-21 05:46:00,78.0,69.4,29.72,SSE,158,0.0,2.6,75,0.00,,,0.00,WUHU216HW,2013-05-21 10:46:00,
2013-05-21 05:51:00,78.0,69.4,29.72,South,180,0.0,2.6,75,0.00,,,0.00,WUHU216HW,2013-05-21 10:51:00,
2013-05-21 05:56:00,77.9,69.2,29.72,South,180,0.0,0.0,75,0.00,,,0.00,WUHU216HW,2013-05-21 10:56:00,
2013-05-21 06:02:00,77.9,69.6,29.72,SE,135,0.0,0.0,76,0.00,,,0.00,WUHU216HW,2013-05-21 11:02:00,
2013-05-21 06:07:00,77.7,69.5,29.72,SE,135,0.0,0.0,76,0.00,,,0.00,WUHU216HW,2013-05-21 11:07:00,
2013-05-21 06:12:00,77.7,69.5,29.72,SSW,203,0.0,0.0,76,0.00,,,0.00,WUHU216HW,2013-05-21 11:12:00,
2013-05-21 06:17:00,77.7,69.5,29.73,South,180,0.0,0.0,76,0.00,,,0.00,WUHU216HW,2013-05-21 11:17:00,
2013-05-21 06:22:00,77.7,69.5,29.72,South,180,0.0,0.0,76,0.00,,,0.00,WUHU216HW,2013-05-21 11:22:00,
2013-05-21 06:27:00,77.5,69.7,29.73,SSE,158,0.0,0.0,77,0.00,,,0.00,WUHU216HW,2013-05-21 11:27:00,
2013-05-21 06:32:00,77.5,69.7,29.72,SSW,203,0.0,0.0,77,0.00,,,0.00,WUHU216HW,2013-05-21 11:32:00,
2013-05-21 06:37:00,77.5,69.7,29.73,SE,135,0.0,0.0,77,0.00,,,0.00,WUHU216HW,2013-05-21 11:37:00,
2013-05-21 06:42:00,77.5,69.7,29.73,SSE,158,0.0,3.8,77,0.00,,,0.00,WUHU216HW,2013-05-21 11:42:00,
2013-05-21 06:47:00,77.5,69.7,29.73,SSE,158,2.2,3.8,77,0.00,,,0.00,WUHU216HW,2013-05-21 11:47:00,
2013-05-21 06:52:00,77.5,69.7,29.73,South,180,0.2,4.2,77,0.00,,,0.00,WUHU216HW,2013-05-21 11:52:00,
2013-05-21 06:57:00,77.3,69.5,29.73,SSE,158,0.0,4.2,77,0.00,,,0.00,WUHU216HW,2013-05-21 11:57:00,
2013-05-21 07:02:00,77.5,69.7,29.73,SSE,158,0.0,0.0,77,0.00,,,0.00,WUHU216HW,2013-05-21 12:02:00,
2013-05-21 07:07:00,77.5,69.7,29.73,SSE,158,0.0,0.0,77,0.00,,,0.00,WUHU216HW,2013-05-21 12:07:00,
2013-05-21 07:12:00,77.5,69.7,29.73,SSE,158,0.0,2.9,77,0.00,,,0.00,WUHU216HW,2013-05-21 12:12:00,
2013-05-21 07:17:00,77.5,69.7,29.74,South,180,4.0,4.0,77,0.00,,,0.00,WUHU216HW,2013-05-21 12:17:00,
2013-05-21 07:22:00,77.5,69.7,29.74,South,180,0.0,4.0,77,0.00,,,0.00,WUHU216HW,2013-05-21 12:22:00,
2013-05-21 07:27:00,77.5,69.7,29.74,SSW,203,2.4,4.0,77,0.00,,,0.00,WUHU216HW,2013-05-21 12:27:00,
2013-05-21 07:32:00,77.3,69.5,29.74,SSE,158,0.0,4.2,77,0.00,,,0.00,WUHU216HW,2013-05-21 12:32:00,
2013-05-21 07:37:00,77.3,69.9,29.74,SSE,158,0.0,4.2,78,0.00,,,0.00,WUHU216HW,2013-05-21 12:37:00,
2013-05-21 07:42:00,77.5,69.7,29.74,South,180,0.0,4.2,77,0.00,,,0.00,WUHU216HW,2013-05-21 12:42:00,
2013-05-21 07:47:00,77.5,69.7,29.74,SSE,158,0.0,4.2,77,0.00,,,0.00,WUHU216HW,2013-05-21 12:47:00,
2013-05-21 07:52:00,77.5,69.7,29.74,South,180,4.4,4.4,77,0.00,,,0.00,WUHU216HW,2013-05-21 12:52:00,
2013-05-21 07:57:00,77.5,69.7,29.74,South,180,0.0,4.6,77,0.00,,,0.00,WUHU216HW,2013-05-21 12:57:00,
2013-05-21 08:02:00,77.5,70.1,29.73,SSE,158,4.0,4.6,78,0.00,,,0.00,WUHU216HW,2013-05-21 13:02:00,
2013-05-21 08:07:00,77.7,69.8,29.73,South,180,4.6,10.0,77,0.00,,,0.00,WUHU216HW,2013-05-21 13:07:00,
2013-05-21 08:12:00,77.5,69.7,29.73,South,180,2.6,10.0,77,0.00,,,0.00,WUHU216HW,2013-05-21 13:12:00,
2013-05-21 08:17:00,77.7,69.8,29.72,SSE,158,0.2,7.8,77,0.00,,,0.00,WUHU216HW,2013-05-21 13:17:00,
2013-05-21 08:22:00,77.7,69.8,29.71,SSE,158,4.9,4.9,77,0.00,,,0.00,WUHU216HW,2013-05-21 13:22:00,
2013-05-21 08:27:00,77.7,69.8,29.71,SE,135,1.7,4.9,77,0.00,,,0.00,WUHU216HW,2013-05-21 13:27:00,
2013-05-21 08:32:00,77.7,69.8,29.71,SSW,203,2.6,2.6,77,0.00,,,0.00,WUHU216HW,2013-05-21 13:32:00,
2013-05-21 08:37:00,77.9,70.0,29.72,South,180,0.0,3.8,77,0.00,,,0.00,WUHU216HW,2013-05-21 13:37:00,
2013-05-21 08:42:00,77.9,70.0,29.72,South,180,0.0,3.8,77,0.00,,,0.00,WUHU216HW,2013-05-21 13:42:00,
2013-05-21 08:47:00,77.9,70.0,29.72,South,180,0.0,0.0,77,0.00,,,0.00,WUHU216HW,2013-05-21 13:47:00,
2013-05-21 08:53:00,78.0,70.2,29.71,SSE,158,0.0,0.0,77,0.00,,,0.00,WUHU216HW,2013-05-21 13:53:00,
2013-05-21 08:58:00,78.0,70.2,29.71,South,180,0.0,2.2,77,0.00,,,0.00,WUHU216HW,2013-05-21 13:58:00,
2013-05-21 09:03:00,78.0,70.2,29.72,SSW,203,5.1,5.1,77,0.00,,,0.00,WUHU216HW,2013-05-21 14:03:00,
2013-05-21 09:08:00,78.0,70.2,29.72,SSW,203,0.0,5.1,77,0.00,,,0.00,WUHU216HW,2013-05-21 14:08:00,
2013-05-21 09:13:00,78.2,70.4,29.73,South,180,1.3,5.1,77,0.00,,,0.00,WUHU216HW,2013-05-21 14:13:00,
2013-05-21 09:18:00,78.4,70.5,29.72,South,180,0.0,5.1,77,0.00,,,0.00,WUHU216HW,2013-05-21 14:18:00,
2013-05-21 09:23:00,78.4,70.1,29.73,SSW,203,0.8,5.1,76,0.00,,,0.00,WUHU216HW,2013-05-21 14:23:00,
2013-05-21 09:28:00,78.6,70.3,29.73,SW,225,0.0,1.7,76,0.00,,,0.00,WUHU216HW,2013-05-21 14:28:00,
2013-05-21 09:33:00,78.6,70.3,29.73,SSW,203,5.5,12.9,76,0.00,,,0.00,WUHU216HW,2013-05-21 14:33:00,
2013-05-21 09:38:00,78.8,70.1,29.73,SSW,203,0.0,12.9,75,0.00,,,0.00,WUHU216HW,2013-05-21 14:38:00,
2013-05-21 09:43:00,78.9,70.3,29.73,South,180,0.0,0.0,75,0.00,,,0.00,WUHU216HW,2013-05-21 14:43:00,
2013-05-21 09:48:00,79.1,70.5,29.74,SSE,158,0.0,0.0,75,0.00,,,0.00,WUHU216HW,2013-05-21 14:48:00,
2013-05-21 09:53:00,79.1,70.5,29.74,SSE,158,0.0,0.0,75,0.00,,,0.00,WUHU216HW,2013-05-21 14:53:00,
2013-05-21 09:58:00,79.3,70.7,29.74,SSE,158,0.0,0.0,75,0.00,,,0.00,WUHU216HW,2013-05-21 14:58:00,
2013-05-21 10:03:00,79.5,70.8,29.74,SE,135,0.0,0.0,75,0.00,,,0.00,WUHU216HW,2013-05-21 15:03:00,
2013-05-21 10:08:00,79.7,71.0,29.74,South,180,0.0,0.0,75,0.00,,,0.00,WUHU216HW,2013-05-21 15:08:00,
2013-05-21 10:13:00,79.7,70.6,29.74,South,180,0.0,0.0,74,0.00,,,0.00,WUHU216HW,2013-05-21 15:13:00,
2013-05-21 10:18:00,79.7,70.6,29.74,SSE,158,0.0,0.0,74,0.00,,,0.00,WUHU216HW,2013-05-21 15:18:00,
2013-05-21 10:23:00,79.8,70.4,29.74,South,180,0.0,0.0,73,0.00,,,0.00,WUHU216HW,2013-05-21 15:23:00,
2013-05-21 10:28:00,79.8,70.4,29.74,South,180,0.0,0.0,73,0.00,,,0.00,WUHU216HW,2013-05-21 15:28:00,
2013-05-21 10:34:00,79.8,70.0,29.74,NNE,23,0.0,0.0,72,0.00,,,0.00,WUHU216HW,2013-05-21 15:34:00,
2013-05-21 10:39:00,80.2,70.4,29.74,SSE,158,0.0,0.0,72,0.00,,,0.00,WUHU216HW,2013-05-21 15:39:00,
2013-05-21 10:44:00,80.2,70.4,29.74,SW,225,0.0,0.0,72,0.00,,,0.00,WUHU216HW,2013-05-21 15:44:00,
2013-05-21 10:49:00,80.4,70.5,29.74,SSE,158,0.0,0.0,72,0.00,,,0.00,WUHU216HW,2013-05-21 15:49:00,
2013-05-21 10:54:00,80.4,70.1,29.75,South,180,13.4,13.4,71,0.00,,,0.00,WUHU216HW,2013-05-21 15:54:00,
2013-05-21 10:59:00,80.4,70.1,29.74,South,180,0.0,13.4,71,0.00,,,0.00,WUHU216HW,2013-05-21 15:59:00,
2013-05-21 11:04:00,80.4,70.1,29.74,South,180,1.3,13.4,71,0.00,,,0.00,WUHU216HW,2013-05-21 16:04:00,
2013-05-21 11:09:00,80.4,70.1,29.74,SSE,158,0.0,4.0,71,0.00,,,0.00,WUHU216HW,2013-05-21 16:09:00,
2013-05-21 11:14:00,80.4,70.1,29.74,South,180,0.0,4.0,71,0.00,,,0.00,WUHU216HW,2013-05-21 16:14:00,
2013-05-21 11:19:00,80.4,70.1,29.74,South,180,0.0,0.0,71,0.00,,,0.00,WUHU216HW,2013-05-21 16:19:00,
2013-05-21 11:24:00,80.4,70.1,29.73,South,180,0.0,0.0,71,0.00,,,0.00,WUHU216HW,2013-05-21 16:24:00,
2013-05-21 11:29:00,80.6,69.9,29.73,South,180,0.0,0.0,70,0.00,,,0.00,WUHU216HW,2013-05-21 16:29:00,
2013-05-21 11:34:00,80.4,69.8,29.74,South,180,0.0,2.6,70,0.00,,,0.00,WUHU216HW,2013-05-21 16:34:00,
2013-05-21 11:39:00,80.4,69.8,29.73,WSW,248,0.0,2.6,70,0.00,,,0.00,WUHU216HW,2013-05-21 16:39:00,
2013-05-21 11:44:00,80.4,70.1,29.73,SSE,158,0.0,0.6,71,0.00,,,0.00,WUHU216HW,2013-05-21 16:44:00,
2013-05-21 11:49:00,80.6,70.3,29.73,SSE,158,0.0,1.5,71,0.00,,,0.00,WUHU216HW,2013-05-21 16:49:00,
2013-05-21 11:54:00,80.6,69.9,29.73,SSW,203,0.0,1.5,70,0.00,,,0.00,WUHU216HW,2013-05-21 16:54:00,
2013-05-21 11:59:00,80.6,69.9,29.73,SSW,203,0.0,0.0,70,0.00,,,0.00,WUHU216HW,2013-05-21 16:59:00,
2013-05-21 12:05:00,80.7,70.1,29.73,SSE,158,2.0,4.9,70,0.00,,,0.00,WUHU216HW,2013-05-21 17:05:00,
2013-05-21 12:10:00,80.6,69.9,29.73,South,180,0.0,4.9,70,0.00,,,0.00,WUHU216HW,2013-05-21 17:10:00,
2013-05-21 12:15:00,80.6,69.8,29.72,SSE,158,0.0,2.0,70,0.00,,,0.00,WUHU216HW,2013-05-21 17:15:00,
2013-05-21 12:20:00,80.4,69.8,29.72,SSE,158,0.0,3.8,70,0.00,,,0.00,WUHU216HW,2013-05-21 17:20:00,
2013-05-21 12:25:00,80.4,69.8,29.73,SSE,158,0.0,3.8,70,0.00,,,0.00,WUHU216HW,2013-05-21 17:25:00,
2013-05-21 12:30:00,80.4,69.8,29.72,SSE,158,0.0,0.0,70,0.00,,,0.00,WUHU216HW,2013-05-21 17:30:00,
2013-05-21 12:35:00,80.4,69.8,29.71,SSE,158,0.0,0.0,70,0.00,,,0.00,WUHU216HW,2013-05-21 17:35:00,
2013-05-21 12:40:00,80.4,69.8,29.71,SSE,158,0.0,3.5,70,0.00,,,0.00,WUHU216HW,2013-05-21 17:40:00,
2013-05-21 12:45:00,80.4,70.1,29.71,South,180,0.0,3.5,71,0.00,,,0.00,WUHU216HW,2013-05-21 17:45:00,
2013-05-21 12:50:00,80.4,69.8,29.71,SSE,158,0.0,0.0,70,0.00,,,0.00,WUHU216HW,2013-05-21 17:50:00,
2013-05-21 12:55:00,80.4,69.8,29.71,South,180,0.0,0.0,70,0.00,,,0.00,WUHU216HW,2013-05-21 17:55:00,
2013-05-21 13:00:00,80.4,69.8,29.71,SSE,158,0.0,0.0,70,0.00,,,0.00,WUHU216HW,2013-05-21 18:00:00,
2013-05-21 13:05:00,80.4,69.8,29.71,SSE,158,0.0,0.0,70,0.00,,,0.00,WUHU216HW,2013-05-21 18:05:00,
2013-05-21 13:10:00,80.4,70.1,29.71,SSE,158,0.0,4.9,71,0.00,,,0.00,WUHU216HW,2013-05-21 18:10:00,
2013-05-21 13:15:00,80.4,70.1,29.70,South,180,0.0,4.9,71,0.00,,,0.00,WUHU216HW,2013-05-21 18:15:00,
2013-05-21 13:20:00,80.2,70.4,29.71,South,180,0.0,1.5,72,0.00,,,0.00,WUHU216HW,2013-05-21 18:20:00,
2013-05-21 13:25:00,80.2,70.0,29.70,South,180,0.0,0.0,71,0.00,,,0.00,WUHU216HW,2013-05-21 18:25:00,
2013-05-21 13:30:00,80.2,70.4,29.69,South,180,0.0,0.0,72,0.00,,,0.00,WUHU216HW,2013-05-21 18:30:00,
2013-05-21 13:35:00,80.2,70.4,29.69,South,180,0.0,0.0,72,0.00,,,0.00,WUHU216HW,2013-05-21 18:35:00,
2013-05-21 13:40:00,80.2,70.4,29.69,SSE,158,0.0,0.0,72,0.00,,,0.00,WUHU216HW,2013-05-21 18:40:00,
2013-05-21 13:46:00,79.8,70.0,29.69,SSE,158,0.0,0.0,72,0.00,,,0.00,WUHU216HW,2013-05-21 18:46:00,
2013-05-21 13:51:00,80.0,70.2,29.69,SSE,158,0.0,0.0,72,0.00,,,0.00,WUHU216HW,2013-05-21 18:51:00,
2013-05-21 13:56:00,80.0,70.2,29.69,South,180,0.0,0.0,72,0.00,,,0.00,WUHU216HW,2013-05-21 18:56:00,
2013-05-21 14:01:00,80.0,70.6,29.69,South,180,0.0,0.0,73,0.00,,,0.00,WUHU216HW,2013-05-21 19:01:00,
2013-05-21 14:06:00,79.8,70.8,29.71,WNW,293,0.0,0.0,74,0.00,,,0.00,WUHU216HW,2013-05-21 19:06:00,
2013-05-21 14:11:00,76.2,65.3,29.73,NW,315,0.0,4.2,69,0.00,,,0.00,WUHU216HW,2013-05-21 19:11:00,
2013-05-21 14:16:00,72.5,63.6,29.74,West,270,0.0,4.2,77,0.06,,,0.06,WUHU216HW,2013-05-21 19:16:00,
2013-05-21 14:21:00,69.9,63.1,29.74,WNW,293,0.0,0.0,79,0.12,,,0.12,WUHU216HW,2013-05-21 19:21:00,
2013-05-21 14:26:00,69.4,62.6,29.73,North,0,0.0,0.0,79,0.14,,,0.14,WUHU216HW,2013-05-21 19:26:00,
2013-05-21 14:31:00,68.5,62.5,29.73,West,270,0.0,0.0,81,0.16,,,0.16,WUHU216HW,2013-05-21 19:31:00,
2013-05-21 14:36:00,68.5,62.5,29.73,NNW,338,0.0,0.0,81,0.18,,,0.16,WUHU216HW,2013-05-21 19:36:00,
2013-05-21 14:41:00,67.8,61.5,29.73,WNW,293,0.0,0.0,80,0.18,,,0.19,WUHU216HW,2013-05-21 19:41:00,
2013-05-21 14:47:00,67.4,61.4,29.73,NNW,338,0.0,0.0,81,0.18,,,0.19,WUHU216HW,2013-05-21 19:47:00,
2013-05-21 14:52:00,66.7,61.0,29.75,WNW,293,0.0,0.0,82,0.26,,,0.23,WUHU216HW,2013-05-21 19:52:00,
2013-05-21 14:57:00,66.5,60.9,29.74,NNW,338,0.0,0.0,82,0.35,,,0.35,WUHU216HW,2013-05-21 19:57:00,
2013-05-21 15:02:00,66.2,60.8,29.73,West,270,0.0,0.0,83,0.37,,,0.35,WUHU216HW,2013-05-21 20:02:00,
2013-05-21 15:07:00,65.6,60.3,29.73,West,270,0.0,0.0,83,0.37,,,0.37,WUHU216HW,2013-05-21 20:07:00,
2013-05-21 15:12:00,65.4,60.1,29.73,WNW,293,0.0,0.0,83,0.37,,,0.37,WUHU216HW,2013-05-21 20:12:00,
2013-05-21 15:17:00,65.1,59.8,29.72,West,270,0.0,0.0,83,0.24,,,0.37,WUHU216HW,2013-05-21 20:17:00,
2013-05-21 15:22:00,65.1,59.8,29.72,WNW,293,0.0,0.0,83,0.22,,,0.37,WUHU216HW,2013-05-21 20:22:00,
2013-05-21 15:27:00,64.9,59.6,29.71,WNW,293,0.0,0.0,83,0.20,,,0.37,WUHU216HW,2013-05-21 20:27:00,
2013-05-21 15:32:00,64.5,59.2,29.71,West,270,0.0,0.0,83,0.18,,,0.37,WUHU216HW,2013-05-21 20:32:00,
2013-05-21 15:37:00,64.9,59.9,29.71,WNW,293,0.0,0.0,84,0.18,,,0.37,WUHU216HW,2013-05-21 20:37:00,
2013-05-21 15:42:00,65.8,60.8,29.71,NE,45,0.0,0.0,84,0.18,,,0.37,WUHU216HW,2013-05-21 20:42:00,
2013-05-21 15:47:00,65.8,60.5,29.72,North,0,0.0,0.0,83,0.18,,,0.39,WUHU216HW,2013-05-21 20:47:00,
2013-05-21 15:52:00,66.0,60.3,29.72,NW,315,0.0,0.0,82,0.12,,,0.39,WUHU216HW,2013-05-21 20:52:00,
2013-05-21 15:57:00,65.4,59.8,29.71,North,0,0.0,0.0,82,0.04,,,0.39,WUHU216HW,2013-05-21 20:57:00,
2013-05-21 16:02:00,65.4,59.8,29.72,North,0,0.0,0.0,82,0.02,,,0.39,WUHU216HW,2013-05-21 21:02:00,
2013-05-21 16:07:00,65.1,59.8,29.73,WNW,293,0.0,0.0,83,0.02,,,0.39,WUHU216HW,2013-05-21 21:07:00,
2013-05-21 16:12:00,65.1,59.8,29.75,NNW,338,0.0,0.0,83,0.02,,,0.39,WUHU216HW,2013-05-21 21:12:00,
2013-05-21 16:18:00,65.8,60.1,29.78,NNW,338,0.0,0.0,82,0.02,,,0.39,WUHU216HW,2013-05-21 21:18:00,
2013-05-21 16:23:00,66.0,60.3,29.77,North,0,0.0,0.0,82,0.02,,,0.39,WUHU216HW,2013-05-21 21:23:00,
2013-05-21 16:28:00,66.2,60.2,29.76,West,270,0.0,0.0,81,0.02,,,0.39,WUHU216HW,2013-05-21 21:28:00,
2013-05-21 16:33:00,66.3,60.4,29.74,North,0,0.0,0.0,81,0.02,,,0.39,WUHU216HW,2013-05-21 21:33:00,
2013-05-21 16:38:00,66.7,60.4,29.73,North,0,0.0,0.0,80,0.02,,,0.39,WUHU216HW,2013-05-21 21:38:00,
2013-05-21 16:43:00,66.7,60.4,29.73,NNW,338,0.0,0.0,80,0.00,,,0.39,WUHU216HW,2013-05-21 21:43:00,
2013-05-21 16:48:00,66.3,60.4,29.74,NNW,338,0.0,0.0,80,0.00,,,0.39,WUHU216HW,2013-05-21 21:48:00,
2013-05-21 16:53:00,65.8,59.5,29.76,North,0,0.0,0.0,80,0.00,,,0.39,WUHU216HW,2013-05-21 21:53:00,
2013-05-21 16:58:00,65.4,59.5,29.77,NNW,338,0.0,0.0,81,0.00,,,0.39,WUHU216HW,2013-05-21 21:58:00,
2013-05-21 17:03:00,65.1,59.1,29.76,WNW,293,0.0,0.0,81,0.00,,,0.39,WUHU216HW,2013-05-21 22:03:00,
2013-05-21 17:08:00,64.9,58.9,29.78,WNW,293,0.0,0.0,81,0.00,,,0.39,WUHU216HW,2013-05-21 22:08:00,
2013-05-21 17:13:00,65.1,59.4,29.77,NNE,23,0.0,0.0,82,0.00,,,0.39,WUHU216HW,2013-05-21 22:13:00,
2013-05-21 17:18:00,64.9,58.9,29.77,WNW,293,0.0,0.0,81,0.00,,,0.39,WUHU216HW,2013-05-21 22:18:00,
2013-05-21 17:23:00,64.9,58.9,29.78,NNW,338,0.0,0.0,81,0.00,,,0.39,WUHU216HW,2013-05-21 22:23:00,
2013-05-21 17:28:00,65.3,59.3,29.77,North,0,0.0,0.0,81,0.00,,,0.39,WUHU216HW,2013-05-21 22:28:00,
2013-05-21 17:33:00,66.0,60.3,29.77,NE,45,0.0,0.0,80,0.00,,,0.39,WUHU216HW,2013-05-21 22:33:00,
2013-05-21 17:38:00,65.8,59.8,29.77,North,0,0.0,0.0,81,0.00,,,0.39,WUHU216HW,2013-05-21 22:38:00,
2013-05-21 17:43:00,66.0,60.0,29.76,NNW,338,0.0,0.0,81,0.00,,,0.39,WUHU216HW,2013-05-21 22:43:00,
2013-05-21 17:48:00,66.3,59.9,29.76,NW,315,0.0,0.0,80,0.00,,,0.39,WUHU216HW,2013-05-21 22:48:00,
2013-05-21 17:53:00,66.3,60.0,29.77,NNE,23,0.0,0.0,80,0.00,,,0.39,WUHU216HW,2013-05-21 22:53:00,
2013-05-21 17:58:00,66.3,60.0,29.77,NNW,338,0.0,0.0,80,0.00,,,0.39,WUHU216HW,2013-05-21 22:58:00,
2013-05-21 18:03:00,66.5,60.2,29.77,NNW,338,0.0,0.0,80,0.00,,,0.39,WUHU216HW,2013-05-21 23:03:00,
2013-05-21 18:09:00,66.9,60.6,29.76,North,0,0.0,0.0,80,0.00,,,0.39,WUHU216HW,2013-05-21 23:09:00,
2013-05-21 18:14:00,67.2,60.9,29.76,North,0,0.0,4.2,80,0.00,,,0.39,WUHU216HW,2013-05-21 23:14:00,
2013-05-21 18:19:00,67.1,60.8,29.75,North,0,0.0,4.2,80,0.00,,,0.39,WUHU216HW,2013-05-21 23:19:00,
2013-05-21 18:24:00,67.2,60.6,29.75,WNW,293,0.0,7.3,79,0.00,,,0.39,WUHU216HW,2013-05-21 23:24:00,
2013-05-21 18:29:00,67.2,60.6,29.75,NNW,338,0.0,7.3,79,0.00,,,0.39,WUHU216HW,2013-05-21 23:29:00,
2013-05-21 18:34:00,67.8,61.1,29.75,North,0,0.0,6.7,79,0.00,,,0.39,WUHU216HW,2013-05-21 23:34:00,
2013-05-21 18:39:00,67.6,60.9,29.75,NNW,338,0.0,2.2,79,0.00,,,0.39,WUHU216HW,2013-05-21 23:39:00,
2013-05-21 18:44:00,67.8,61.1,29.76,NNW,338,0.0,1.7,79,0.00,,,0.39,WUHU216HW,2013-05-21 23:44:00,
2013-05-21 18:49:00,67.8,61.1,29.76,NW,315,3.1,3.1,79,0.00,,,0.39,WUHU216HW,2013-05-21 23:49:00,
2013-05-21 18:54:00,67.8,60.7,29.76,NNW,338,0.0,3.1,78,0.00,,,0.39,WUHU216HW,2013-05-21 23:54:00,
2013-05-21 18:59:00,67.8,60.7,29.76,North,0,0.0,3.1,78,0.00,,,0.39,WUHU216HW,2013-05-21 23:59:00,
2013-05-21 19:04:00,67.8,61.1,29.76,North,0,0.0,0.0,79,0.00,,,0.39,WUHU216HW,2013-05-22 00:04:00,
2013-05-21 19:09:00,68.1,61.4,29.77,North,0,0.0,0.0,79,0.00,,,0.39,WUHU216HW,2013-05-22 00:09:00,
2013-05-21 19:14:00,68.0,61.3,29.77,NNE,23,0.0,0.0,79,0.00,,,0.39,WUHU216HW,2013-05-22 00:14:00,
2013-05-21 19:19:00,67.8,60.7,29.77,North,0,0.0,0.0,78,0.00,,,0.39,WUHU216HW,2013-05-22 00:19:00,
2013-05-21 19:24:00,67.8,60.7,29.78,North,0,0.0,0.0,78,0.00,,,0.39,WUHU216HW,2013-05-22 00:24:00,
2013-05-21 19:29:00,67.2,60.2,29.77,North,0,0.0,0.0,78,0.00,,,0.39,WUHU216HW,2013-05-22 00:29:00,
2013-05-21 19:34:00,67.6,60.5,29.77,North,0,0.0,0.0,78,0.00,,,0.39,WUHU216HW,2013-05-22 00:34:00,
2013-05-21 19:39:00,67.4,60.4,29.78,North,0,0.0,0.0,78,0.00,,,0.39,WUHU216HW,2013-05-22 00:39:00,
2013-05-21 19:44:00,67.2,60.6,29.78,North,0,0.0,0.0,79,0.00,,,0.39,WUHU216HW,2013-05-22 00:44:00,
2013-05-21 19:49:00,67.6,60.9,29.79,North,0,0.0,2.2,79,0.00,,,0.39,WUHU216HW,2013-05-22 00:49:00,
2013-05-21 19:54:00,67.6,60.9,29.79,NNW,338,0.0,2.2,79,0.00,,,0.39,WUHU216HW,2013-05-22 00:54:00,
2013-05-21 19:59:00,66.9,60.2,29.78,North,0,0.0,3.1,79,0.00,,,0.39,WUHU216HW,2013-05-22 00:59:00,
2013-05-21 20:04:00,66.9,60.2,29.79,NNW,338,0.0,3.1,79,0.00,,,0.39,WUHU216HW,2013-05-22 01:04:00,
2013-05-21 20:09:00,66.7,60.0,29.79,NW,315,0.0,0.0,79,0.00,,,0.39,WUHU216HW,2013-05-22 01:09:00,
2013-05-21 20:14:00,66.7,60.4,29.80,NNW,338,0.0,0.0,80,0.00,,,0.39,WUHU216HW,2013-05-22 01:14:00,
2013-05-21 20:19:00,66.9,60.6,29.79,North,0,0.0,0.0,80,0.00,,,0.39,WUHU216HW,2013-05-22 01:19:00,
2013-05-21 20:25:00,66.9,60.6,29.80,North,0,0.0,0.0,80,0.00,,,0.39,WUHU216HW,2013-05-22 01:25:00,
2013-05-21 20:30:00,66.9,60.6,29.80,North,0,0.0,0.0,80,0.00,,,0.39,WUHU216HW,2013-05-22 01:30:00,
2013-05-21 20:35:00,66.9,60.6,29.80,North,0,0.0,0.0,80,0.00,,,0.39,WUHU216HW,2013-05-22 01:35:00,
2013-05-21 20:40:00,66.7,60.4,29.80,NW,315,0.0,0.0,80,0.00,,,0.39,WUHU216HW,2013-05-22 01:40:00,
2013-05-21 20:45:00,66.5,60.2,29.81,NW,315,0.0,0.0,80,0.00,,,0.39,WUHU216HW,2013-05-22 01:45:00,
2013-05-21 20:50:00,66.3,60.0,29.81,NW,315,0.0,0.0,80,0.00,,,0.39,WUHU216HW,2013-05-22 01:50:00,
2013-05-21 20:55:00,66.3,60.0,29.81,NW,315,0.0,0.0,80,0.00,,,0.39,WUHU216HW,2013-05-22 01:55:00,
2013-05-21 21:00:00,66.0,59.7,29.81,NW,315,0.0,0.0,80,0.00,,,0.39,WUHU216HW,2013-05-22 02:00:00,
2013-05-21 21:05:00,66.0,59.7,29.81,NW,315,0.0,0.0,80,0.00,,,0.39,WUHU216HW,2013-05-22 02:05:00,
2013-05-21 21:10:00,66.0,59.7,29.81,NW,315,0.0,0.0,80,0.00,,,0.39,WUHU216HW,2013-05-22 02:10:00,
2013-05-21 21:15:00,66.0,59.7,29.81,NNE,23,0.0,1.7,80,0.00,,,0.39,WUHU216HW,2013-05-22 02:15:00,
2013-05-21 21:20:00,66.0,59.7,29.81,North,0,0.0,1.7,80,0.00,,,0.39,WUHU216HW,2013-05-22 02:20:00,
2013-05-21 21:25:00,66.0,59.7,29.81,WSW,248,0.0,0.0,80,0.00,,,0.39,WUHU216HW,2013-05-22 02:25:00,
2013-05-21 21:30:00,65.8,59.5,29.81,NNW,338,0.0,0.0,80,0.00,,,0.39,WUHU216HW,2013-05-22 02:30:00,
2013-05-21 21:35:00,65.6,59.5,29.81,West,270,0.0,0.0,80,0.00,,,0.39,WUHU216HW,2013-05-22 02:35:00,
2013-05-21 21:40:00,65.8,59.5,29.81,West,270,0.0,0.0,80,0.00,,,0.39,WUHU216HW,2013-05-22 02:40:00,
2013-05-21 21:45:00,65.8,59.5,29.81,North,0,1.7,1.7,80,0.00,,,0.39,WUHU216HW,2013-05-22 02:45:00,
2013-05-21 21:50:00,65.8,59.5,29.81,NNE,23,0.0,2.9,80,0.00,,,0.39,WUHU216HW,2013-05-22 02:50:00,
2013-05-21 21:55:00,66.0,59.7,29.81,North,0,0.0,2.9,80,0.00,,,0.39,WUHU216HW,2013-05-22 02:55:00,
2013-05-21 22:00:00,66.0,59.7,29.81,North,0,0.0,0.0,80,0.00,,,0.39,WUHU216HW,2013-05-22 03:00:00,
2013-05-21 22:05:00,66.0,59.7,29.81,North,0,0.0,0.0,80,0.00,,,0.39,WUHU216HW,2013-05-22 03:05:00,
2013-05-21 22:10:00,66.0,59.7,29.82,North,0,0.0,0.0,80,0.00,,,0.39,WUHU216HW,2013-05-22 03:10:00,
2013-05-21 22:15:00,66.0,59.7,29.82,NNE,23,0.0,0.0,80,0.00,,,0.39,WUHU216HW,2013-05-22 03:15:00,
2013-05-21 22:20:00,66.0,59.7,29.82,NNE,23,0.0,0.0,80,0.00,,,0.39,WUHU216HW,2013-05-22 03:20:00,
2013-05-21 22:25:00,66.0,59.7,29.82,NNE,23,0.0,0.0,80,0.00,,,0.39,WUHU216HW,2013-05-22 03:25:00,
2013-05-21 22:30:00,66.0,59.7,29.83,NNE,23,0.0,0.0,80,0.00,,,0.39,WUHU216HW,2013-05-22 03:30:00,
2013-05-21 22:36:00,66.0,59.7,29.83,NNE,23,0.0,0.0,80,0.00,,,0.39,WUHU216HW,2013-05-22 03:36:00,
2013-05-21 22:41:00,65.8,59.5,29.83,NNE,23,0.0,0.0,80,0.00,,,0.39,WUHU216HW,2013-05-22 03:41:00,
2013-05-21 22:46:00,65.8,59.5,29.84,NNE,23,0.0,0.0,80,0.00,,,0.39,WUHU216HW,2013-05-22 03:46:00,
2013-05-21 22:51:00,65.8,59.5,29.83,NNE,23,0.0,0.0,80,0.00,,,0.39,WUHU216HW,2013-05-22 03:51:00,
2013-05-21 22:56:00,65.8,59.5,29.83,NNE,23,0.0,0.0,80,0.00,,,0.39,WUHU216HW,2013-05-22 03:56:00,
2013-05-21 23:01:00,65.4,59.5,29.83,NNE,23,0.0,0.0,81,0.00,,,0.39,WUHU216HW,2013-05-22 04:01:00,
2013-05-21 23:02:00,65.4,59.5,29.83,NNE,23,0.0,0.0,81,0.00,,,0.39,WUHU216HW,2013-05-22 04:02:00,
2013-05-21 23:07:00,65.3,59.3,29.83,NNE,23,0.0,0.0,81,0.00,,,0.39,WUHU216HW,2013-05-22 04:07:00,
2013-05-21 23:12:00,65.1,59.1,29.83,NNE,23,0.0,0.0,81,0.00,,,0.39,WUHU216HW,2013-05-22 04:12:00,
2013-05-21 23:17:00,65.1,59.1,29.83,NNE,23,0.0,0.0,81,0.00,,,0.39,WUHU216HW,2013-05-22 04:17:00,
2013-05-21 23:22:00,65.1,59.1,29.83,NNE,23,0.0,0.0,81,0.00,,,0.39,WUHU216HW,2013-05-22 04:22:00,
2013-05-21 23:27:00,65.1,59.1,29.83,NNE,23,0.0,0.0,81,0.00,,,0.39,WUHU216HW,2013-05-22 04:27:00,
2013-05-21 23:32:00,65.1,59.1,29.83,NNE,23,0.0,0.0,81,0.00,,,0.39,WUHU216HW,2013-05-22 04:32:00,
2013-05-21 23:37:00,65.1,59.1,29.83,NNE,23,0.0,0.0,81,0.00,,,0.39,WUHU216HW,2013-05-22 04:37:00,
2013-05-21 23:42:00,64.9,58.9,29.83,NNE,23,0.0,0.0,81,0.00,,,0.39,WUHU216HW,2013-05-22 04:42:00,
2013-05-21 23:47:00,64.9,58.9,29.84,NNE,23,0.0,0.0,81,0.00,,,0.39,WUHU216HW,2013-05-22 04:47:00,
2013-05-21 23:52:00,64.9,58.9,29.84,NNE,23,0.0,0.0,81,0.00,,,0.39,WUHU216HW,2013-05-22 04:52:00,
2013-05-21 23:57:00,64.9,58.9,29.84,NNE,23,0.0,0.0,81,0.00,,,0.39,WUHU216HW,2013-05-22 04:57:00,